METEOR 2-8

导读

METEOR 2-8是苏联解体后独立国家联合体(CIS)继承苏联航天技术后发射的第二代流星系列气象卫星,1982年3月25日发射入轨。它运行在约900公里高度的非太阳同步极轨道,属于典型的极轨气象卫星,搭载可见光红外相机、多通道扫描辐射计等载荷,可获取全球云图与大气辐射数据,为气象预报、气候变化研究提供重要观测支撑,是流星气象卫星体系中承前启后的代表性任务。

Basic Information
目录编号:
13113
目录名称:
METEOR 2-8
国际标识:
1982-025A
轨道中心:
EARTH
卫星名称:
METEOR 2-8
卫星全名:
--
卫星状态:
在轨 (已飞行16151 天)
发射日期:
1982-03-25 UTC
国别 :
俄罗斯(独联体) (CIS)
星等 :
--
Orbit Information
数据来源 国际轨道数据 AOE轨道数据
星历时间 2026-06-13T04:06:37+0800
7小时前
查看轨道信息
2026-06-10T06:00:00+0800
3天前
查看轨道信息
半长轴 7322.23km 7322.231km
偏心率 0.0016564 0.0016596
轨道倾角 82.539° 82.537°
近地点辐角 248.551° 257.215°
升交点赤经 101.638° 103.967°
平近点角 165.051° 352.903°
近地点 931.964km 931.942km
远地点 956.222km 956.246km
周期 103.926分钟 103.926分钟
每日圈数 13.855995 13.855994
Detailed Information
使用方式:
暂无
2D Orbit Map
3D Orbit Map
Orbit Altitude Analysis Chart
Orbit Inclination Analysis Chart
Orbit Comprehensive Analysis Chart
View Comprehensive Chart